Home > Weather > Vellore > Past weeks

Flag for India Past Weather in Vellore, Tamil Nadu, India — Yesterday and Last 2 Weeks

Now
91 °F

Scattered clouds.


Feels Like: 100 °F
Forecast: 75 / 87 °F
Wind: 6 mph from Southwest

Location: Madras / Minambakkam

Current Time: Jul 26, 2016 at 12:08:17 PM

Latest Report: Jul 26, 2016 at 11:30 AM


Visibility: 4 mi

Pressure: 29.65 "Hg

Humidity: 56%

Dew Point: 73 °F

Location of VelloreLocation

Past Weather in Vellore — Graph

°F

Vellore Temperature Yesterday

Maximum temperature yesterday: 93 °F (at 12:00 PM)
Minimum temperature yesterday: 79 °F (at 5:30 AM)
Average temperature yesterday: 85 °F

High & Low Weather Summary for the Past Weeks

 TemperatureHumidityPressure
High99 °F (Jul 12, 1:30 PM)100% (Jul 19, 7:30 AM)29.80 "Hg (Jul 19, 7:30 AM)
Low75 °F (Jul 20, 3:30 AM)37% (Jul 12, 3:30 PM)29.50 "Hg (Jul 11, 3:30 PM)
Average87 °F67%29.66 "Hg
* Reported Jul 11 10:30 AM — Jul 26 11:00 AM, Vellore, Weather by CustomWeather, © 2016

Note: Actual official high and low records may vary slightly from our data, if they occured in-between our weather recording intervals... More about our weather records

Advertising

Vellore Weather History for the Previous 24 Hours

Scroll right to see more
 ConditionsComfort  
Time TempWeatherWind HumidityBarometerVisibility
11:00 AM
Tue, Jul 26
90 °FScattered clouds.3 mph59%29.65 "Hg4 mi
10:30 AM90 °FScattered clouds.3 mph59%29.65 "Hg4 mi
10:00 AM90 °FScattered clouds.3 mph59%29.65 "Hg4 mi
9:30 AM88 °FScattered clouds.3 mph62%29.68 "Hg4 mi
9:00 AM88 °FScattered clouds.3 mph62%29.68 "Hg4 mi
8:30 AM86 °FScattered clouds.3 mph66%29.68 "Hg4 mi
8:00 AM82 °FScattered clouds.3 mph74%29.68 "Hg4 mi
7:30 AM81 °FScattered clouds.3 mph79%29.65 "Hg4 mi
7:00 AM81 °FScattered clouds.7 mph79%29.68 "Hg4 mi
6:30 AM79 °FScattered clouds.9 mph79%29.65 "Hg4 mi
6:00 AM79 °FPassing clouds.9 mph79%29.65 "Hg4 mi
5:30 AM79 °FFog.9 mph84%29.65 "Hg3 mi
5:00 AM79 °FFog.10 mph84%29.65 "Hg3 mi
4:30 AM79 °FFog.10 mph89%29.68 "Hg3 mi
4:00 AM79 °FFog.9 mph89%29.68 "Hg3 mi
3:30 AM79 °FFog.7 mph84%29.65 "Hg3 mi
3:00 AM79 °FFog.7 mph84%29.65 "Hg3 mi
2:30 AM79 °FFog.7 mph84%29.68 "Hg3 mi
2:00 AM79 °FFog.7 mph84%29.68 "Hg3 mi
1:30 AM81 °FFog.6 mph79%29.68 "Hg3 mi
1:00 AM81 °FFog.6 mph79%29.68 "Hg3 mi
12:30 AM81 °FFog.7 mph79%29.68 "Hg3 mi
12:00 AM81 °FFog.3 mph79%29.68 "Hg3 mi
11:30 PM
Mon, Jul 25
79 °FFog.5 mph84%29.71 "Hg3 mi
11:00 PM81 °FFog.9 mph79%29.74 "Hg3 mi
10:30 PM82 °FPartly cloudy.14 mph79%29.74 "Hg3 mi
10:00 PM84 °FPassing clouds.5 mph79%29.71 "Hg3 mi
9:30 PM84 °FPassing clouds.7 mph79%29.71 "Hg3 mi
9:00 PM84 °FPassing clouds.8 mph79%29.71 "Hg3 mi
8:30 PM84 °FPassing clouds.8 mph79%29.68 "Hg3 mi
8:00 PM84 °FHaze.9 mph79%29.68 "Hg3 mi
7:30 PM84 °FPassing clouds.10 mph74%29.65 "Hg4 mi
7:00 PM84 °FScattered clouds.9 mph74%29.65 "Hg4 mi
6:30 PM86 °FScattered clouds.9 mph75%29.62 "Hg4 mi
6:00 PM86 °FScattered clouds.12 mph70%29.62 "Hg4 mi
5:30 PM86 °FScattered clouds.9 mph70%29.62 "Hg4 mi
5:00 PM86 °FScattered clouds.12 mph70%29.59 "Hg4 mi
4:30 PM88 °FScattered clouds.9 mph66%29.59 "Hg5 mi
4:00 PM88 °FScattered clouds.12 mph66%29.59 "Hg5 mi
3:30 PM88 °FScattered clouds.12 mph70%29.62 "Hg6 mi
3:00 PM90 °FScattered clouds.12 mph67%29.62 "HgN/A
2:30 PM90 °FScattered clouds.9 mph67%29.62 "HgN/A
2:00 PM90 °FScattered clouds.9 mph63%29.62 "HgN/A
1:30 PM90 °FScattered clouds.9 mph67%29.62 "HgN/A
1:00 PM90 °FScattered clouds.9 mph67%29.62 "HgN/A
12:30 PM91 °FScattered clouds.7 mph63%29.65 "HgN/A
12:00 PM93 °FScattered clouds.3 mph53%29.65 "HgN/A
Weather by CustomWeather, © 2016

See weather overviewHow to use our weather pages